| time (UTC) | temp C | wind direction | speed KPH | gust KPH | rain 1hr cm | rain 24hr cm | rain mn cm | humidity % | barometer mb |
| 20260903174604 | 15 | 270 | 6.4 | 19.3 | 0.00 | 0.28 | 0.05 | 71 | 1013.0 |
| 20260903173111 | 15 | 313 | 4.8 | 17.7 | 0.00 | 0.28 | 0.05 | 76 | 1013.1 |
| 20260903171607 | 15 | 243 | 6.4 | 22.5 | 0.00 | 0.28 | 0.05 | 80 | 1013.3 |
| 20260903164605 | 14 | 236 | 6.4 | 22.5 | 0.08 | 0.28 | 0.05 | 87 | 1013.5 |
| 20260903163100 | 14 | 279 | 3.2 | 11.3 | 0.08 | 0.28 | 0.05 | 88 | 1013.5 |
| 20260903161617 | 14 | 265 | 4.8 | 16.1 | 0.05 | 0.25 | 0.03 | 87 | 1013.7 |
| 20260903160101 | 14 | 0 | 0.0 | 6.4 | 0.00 | 0.20 | 0.00 | 86 | 1013.7 |
| 20260903154600 | 14 | 347 | 3.2 | 12.9 | 0.00 | 0.18 | 0.18 | 83 | 1013.8 |
| 20260903153101 | 16 | 268 | 4.8 | 14.5 | 0.00 | 0.18 | 0.18 | 76 | 1014.1 |
| 20260903151614 | 15 | 246 | 3.2 | 16.1 | 0.00 | 0.18 | 0.18 | 74 | 1013.9 |
| 20260903144602 | 16 | 250 | 4.8 | 16.1 | 0.00 | 0.18 | 0.18 | 69 | 1014.3 |
| 20260903143103 | 16 | 0 | 1.6 | 17.7 | 0.00 | 0.18 | 0.18 | 65 | 1014.4 |
| 20260903141605 | 16 | 263 | 1.6 | 11.3 | 0.00 | 0.18 | 0.18 | 70 | 1014.5 |
| 20260903140104 | 16 | 306 | 3.2 | 12.9 | 0.00 | 0.18 | 0.18 | 68 | 1014.6 |
| 20260903134609 | 16 | 300 | 3.2 | 17.7 | 0.00 | 0.20 | 0.18 | 69 | 1014.9 |
| 20260903133106 | 16 | 290 | 6.4 | 20.9 | 0.00 | 0.20 | 0.18 | 70 | 1015.0 |
| 20260903131604 | 16 | 324 | 1.6 | 11.3 | 0.00 | 0.20 | 0.18 | 70 | 1015.1 |
| 20260903130109 | 16 | 265 | 1.6 | 16.1 | 0.00 | 0.20 | 0.18 | 68 | 1015.0 |
| 20260903124606 | 16 | 269 | 1.6 | 17.7 | 0.00 | 0.20 | 0.18 | 67 | 1015.4 |
| 20260903123105 | 16 | 267 | 4.8 | 19.3 | 0.00 | 0.20 | 0.18 | 68 | 1015.4 |
| 20260903121601 | 16 | 296 | 8.0 | 17.7 | 0.00 | 0.20 | 0.18 | 71 | 1015.4 |
| 20260903120103 | 16 | 296 | 3.2 | 16.1 | 0.00 | 0.20 | 0.18 | 70 | 1015.4 |
| 20260903114602 | 16 | 350 | 3.2 | 19.3 | 0.00 | 0.41 | 0.18 | 76 | 1015.5 |
| 20260903113102 | 16 | 265 | 4.8 | 16.1 | 0.00 | 0.41 | 0.18 | 79 | 1015.3 |
| 20260903111602 | 16 | 309 | 1.6 | 12.9 | 0.00 | 0.41 | 0.18 | 81 | 1015.1 |
| 20260903104605 | 15 | 0 | 1.6 | 11.3 | 0.00 | 0.61 | 0.18 | 87 | 1014.9 |
| 20260903103101 | 15 | 234 | 1.6 | 11.3 | 0.00 | 0.61 | 0.18 | 86 | 1014.9 |
| 20260903101607 | 15 | 328 | 1.6 | 14.5 | 0.00 | 0.61 | 0.18 | 86 | 1014.8 |
| 20260903094611 | 16 | 315 | 1.6 | 14.5 | 0.00 | 0.61 | 0.18 | 82 | 1014.5 |
| 20260903093107 | 16 | 299 | 0.0 | 9.7 | 0.00 | 0.61 | 0.18 | 80 | 1014.6 |
| 20260903091609 | 16 | 329 | 6.4 | 16.1 | 0.00 | 0.61 | 0.18 | 79 | 1014.5 |
| 20260903090106 | 16 | 284 | 3.2 | 12.9 | 0.00 | 0.61 | 0.18 | 82 | 1014.4 |
| 20260903084618 | 16 | 281 | 3.2 | 11.3 | 0.00 | 0.61 | 0.18 | 82 | 1014.5 |
| 20260903083107 | 16 | 317 | 1.6 | 12.9 | 0.00 | 0.61 | 0.18 | 83 | 1014.4 |
| 20260903081602 | 17 | 355 | 3.2 | 11.3 | 0.00 | 0.61 | 0.18 | 77 | 1014.5 |
| 20260903080106 | 17 | 292 | 3.2 | 14.5 | 0.00 | 0.61 | 0.18 | 77 | 1014.5 |
| 20260903074600 | 18 | 257 | 9.7 | 20.9 | 0.00 | 0.61 | 0.18 | 75 | 1014.6 |
| 20260903073115 | 18 | 315 | 3.2 | 12.9 | 0.00 | 0.61 | 0.18 | 71 | 1014.7 |
| 20260903071601 | 18 | 301 | 4.8 | 14.5 | 0.00 | 0.61 | 0.18 | 71 | 1014.8 |
| 20260903070108 | 18 | 267 | 3.2 | 14.5 | 0.00 | 0.61 | 0.18 | 72 | 1014.9 |
| 20260903064602 | 18 | 257 | 3.2 | 11.3 | 0.00 | 0.61 | 0.18 | 71 | 1015.0 |
| 20260903063126 | 18 | 334 | 3.2 | 14.5 | 0.00 | 0.61 | 0.18 | 75 | 1015.2 |
| 20260903061604 | 18 | 294 | 3.2 | 11.3 | 0.00 | 0.61 | 0.18 | 77 | 1015.4 |
| 20260903060108 | 18 | 0 | 3.2 | 9.7 | 0.00 | 0.61 | 0.18 | 82 | 1015.4 |
| 20260903054601 | 17 | 355 | 0.0 | 16.1 | 0.00 | 0.61 | 0.18 | 88 | 1015.7 |
| 20260903053104 | 17 | 9 | 1.6 | 8.0 | 0.00 | 0.61 | 0.18 | 86 | 1016.0 |
| 20260903051602 | 16 | 67 | 4.8 | 12.9 | 0.03 | 0.61 | 0.18 | 86 | 1016.3 |
| 20260903050105 | 16 | 341 | 3.2 | 8.0 | 0.03 | 0.61 | 0.18 | 90 | 1016.4 |
| 20260903044600 | 16 | 281 | 1.6 | 8.0 | 0.03 | 0.61 | 0.18 | 91 | 1016.8 |
| 20260903043110 | 15 | 324 | 1.6 | 11.3 | 0.05 | 0.61 | 0.18 | 89 | 1017.3 |
| 20260903041601 | 16 | 335 | 1.6 | 12.9 | 0.00 | 0.56 | 0.13 | 89 | 1017.6 |
| 20260903040105 | 16 | 286 | 0.0 | 11.3 | 0.00 | 0.56 | 0.13 | 90 | 1017.6 |
| 20260903034605 | 15 | 360 | 1.6 | 12.9 | 0.00 | 0.56 | 0.13 | 90 | 1018.0 |
| 20260903033103 | 16 | 19 | 1.6 | 9.7 | 0.00 | 0.56 | 0.10 | 89 | 1017.9 |
| 20260903031557 | 16 | 5 | 4.8 | 16.1 | 0.00 | 0.56 | 0.10 | 84 | 1018.0 |
| 20260903030110 | 16 | 343 | 0.0 | 4.8 | 0.00 | 0.56 | 0.10 | 84 | 1018.0 |
| 20260903024600 | 17 | 0 | 0.0 | 6.4 | 0.00 | 0.56 | 0.10 | 83 | 1018.1 |
| 20260903023108 | 17 | 0 | 1.6 | 8.0 | 0.00 | 0.56 | 0.10 | 85 | 1018.4 |
| 20260903021602 | 16 | 19 | 0.0 | 4.8 | 0.00 | 0.56 | 0.10 | 88 | 1018.6 |
| 20260903014603 | 16 | 14 | 1.6 | 9.7 | 0.00 | 0.56 | 0.10 | 89 | 1019.0 |
| 20260903013103 | 16 | 0 | 0.0 | 6.4 | 0.00 | 0.56 | 0.10 | 91 | 1019.0 |
| 20260903011610 | 15 | 0 | 0.0 | 6.4 | 0.00 | 0.56 | 0.10 | 93 | 1019.1 |
| 20260903010108 | 15 | 19 | 0.0 | 3.2 | 0.00 | 0.56 | 0.10 | 94 | 1019.1 |
| 20260903004625 | 14 | 14 | 0.0 | 8.0 | 0.00 | 0.56 | 0.10 | 94 | 1018.8 |
| 20260903003107 | 13 | 0 | 0.0 | 4.8 | 0.00 | 0.56 | 0.10 | 95 | 1018.8 |
| 20260903001604 | 14 | 0 | 0.0 | 1.6 | 0.00 | 0.56 | 0.10 | 95 | 1019.0 |
| 20260902234601 | 13 | 0 | 0.0 | 1.6 | 0.00 | 0.56 | 0.10 | 95 | 1018.9 |
| 20260902233105 | 12 | 0 | 0.0 | 1.6 | 0.00 | 0.56 | 0.10 | 95 | 1018.9 |
| 20260902231607 | 12 | 0 | 0.0 | 1.6 | 0.00 | 0.56 | 0.10 | 95 | 1018.9 |
| 20260902230106 | 12 | 0 | 0.0 | 1.6 | 0.00 | 0.56 | 0.10 | 95 | 1018.7 |
| 20260902224603 | 12 | 0 | 0.0 | 1.6 | 0.00 | 0.56 | 0.10 | 95 | 1018.5 |
| 20260902223121 | 11 | 0 | 0.0 | 0.0 | 0.00 | 0.56 | 0.10 | 95 | 1018.9 |
| 20260902221608 | 11 | 0 | 0.0 | 0.0 | 0.00 | 0.56 | 0.10 | 95 | 1018.9 |
| 20260902220112 | 11 | 0 | 0.0 | 0.0 | 0.00 | 0.53 | 0.08 | 95 | 1018.8 |
| 20260902214604 | 12 | 0 | 0.0 | 0.0 | 0.00 | 0.53 | 0.08 | 94 | 1018.9 |
| 20260902213102 | 12 | 0 | 0.0 | 1.6 | 0.00 | 0.53 | 0.08 | 95 | 1018.8 |
| 20260902211603 | 12 | 0 | 0.0 | 0.0 | 0.00 | 0.53 | 0.08 | 95 | 1018.9 |
| 20260902210100 | 12 | 0 | 0.0 | 0.0 | 0.00 | 0.53 | 0.08 | 95 | 1018.8 |
| 20260902204642 | 12 | 0 | 0.0 | 1.6 | 0.00 | 0.53 | 0.08 | 95 | 1018.7 |
| 20260902203102 | 12 | 0 | 0.0 | 1.6 | 0.00 | 0.53 | 0.08 | 95 | 1018.8 |
| 20260902201603 | 12 | 0 | 0.0 | 0.0 | 0.00 | 0.53 | 0.08 | 95 | 1018.8 |
| 20260902200103 | 12 | 0 | 0.0 | 1.6 | 0.00 | 0.53 | 0.08 | 95 | 1018.9 |
| 20260902194603 | 12 | 0 | 0.0 | 1.6 | 0.00 | 0.53 | 0.08 | 95 | 1018.9 |
| 20260902193105 | 13 | 0 | 0.0 | 3.2 | 0.00 | 0.53 | 0.08 | 94 | 1019.1 |
| 20260902191604 | 13 | 0 | 0.0 | 0.0 | 0.08 | 0.53 | 0.08 | 95 | 1019.1 |
| 20260902190105 | 13 | 0 | 0.0 | 3.2 | 0.08 | 0.53 | 0.08 | 95 | 1019.5 |
| 20260902184656 | 13 | 0 | 0.0 | 0.0 | 0.08 | 0.53 | 0.08 | 94 | 1019.7 |
| 20260902183113 | 13 | 0 | 0.0 | 1.6 | 0.08 | 0.53 | 0.08 | 94 | 1019.8 |
| 20260902181614 | 13 | 0 | 0.0 | 0.0 | 0.00 | 0.46 | 0.00 | 94 | 1020.0 |